Home   Weather   Mayen   Past weeks

Flag for Germany Past Weather in Mayen, Rhineland-Palatinate, Germany — Yesterday and Last 2 Weeks

Now
39 °F

Partly sunny.


Feels Like: 34 °F
Forecast: 33 / 50 °F
Wind: 7 mph from North

Location: Buechel

Current Time: Apr 26, 2017 at 10:22:39 am

Latest Report: Apr 26, 2017 at 9:20 am


Visibility: N/A

Pressure: 29.83 "Hg

Humidity: 56%

Dew Point: 25 °F

Location of MayenLocation

Past Weather in Mayen — Graph

°F

Mayen Temperature Yesterday

Maximum temperature yesterday: 45 °F (at 12:20 am)
Minimum temperature yesterday: 37 °F (at 8:47 am)
Average temperature yesterday: 41 °F

High & Low Weather Summary for the Past Weeks

 TemperatureHumidityPressure
High57 °F (Apr 12, 4:20 pm)100% (Apr 17, 10:20 am)30.57 "Hg (Apr 17, 10:20 am)
Low28 °F (Apr 20, 6:20 am)31% (Apr 24, 4:20 pm)29.68 "Hg (Apr 25, 4:20 am)
Average42 °F64%30.13 "Hg
* Reported Apr 11 8:20 am — Apr 26 8:20 am, Mayen, Weather by CustomWeather, © 2017

Note: Actual official high and low records may vary slightly from our data, if they occured in-between our weather recording intervals... More about our weather records

Advertising

Mayen Weather History for the Previous 24 Hours

Scroll right to see more
 ConditionsComfort  
Time TempWeatherWind HumidityBarometerVisibility
8:20 am
Wed, Apr 26
37 °FBroken clouds.7 mph65%29.83 "HgN/A
7:20 am34 °FBroken clouds.3 mph75%29.83 "HgN/A
6:20 am34 °FBroken clouds.5 mph75%29.80 "HgN/A
5:20 am34 °FPassing clouds.6 mph75%29.80 "HgN/A
4:20 am36 °FChilly.6 mph70%29.80 "Hg4 mi
3:20 am34 °FChilly.5 mph75%29.80 "Hg4 mi
2:20 am36 °FChilly.5 mph75%29.80 "Hg5 mi
1:20 am36 °FChilly.6 mph70%29.80 "Hg5 mi
12:20 am37 °FChilly.6 mph65%29.80 "Hg5 mi
11:20 pm
Tue, Apr 25
37 °FChilly.5 mph65%29.80 "Hg5 mi
10:20 pm37 °FChilly.5 mph60%29.80 "Hg4 mi
9:20 pm39 °FChilly.5 mph56%29.80 "Hg5 mi
8:20 pm39 °FChilly.8 mph61%29.80 "Hg5 mi
7:20 pm41 °FQuite cool.13 mph49%29.77 "Hg6 mi
6:20 pm43 °FQuite cool.10 mph53%29.77 "Hg5 mi
5:20 pm45 °FQuite cool.8 mph39%29.77 "HgN/A
4:20 pm45 °FBroken clouds.12 mph37%29.77 "HgN/A
3:20 pm45 °FBroken clouds.10 mph37%29.77 "HgN/A
2:20 pm43 °FBroken clouds.13 mph42%29.80 "HgN/A
1:20 pm43 °FBroken clouds.10 mph42%29.77 "HgN/A
12:20 pm41 °FBroken clouds.13 mph49%29.77 "HgN/A
11:20 am41 °FBroken clouds.9 mph70%29.77 "HgN/A
10:20 am39 °FBroken clouds.9 mph75%29.74 "HgN/A
Weather by CustomWeather, © 2017

See weather overviewHow to use our weather pages